Weather Roundup
Issued by NWS

Home | Current Version | Previous Version | Text Only | Print | Product List | Glossary On
Versions: 1 2 3 4 5 6 7 8 9 10 11 12 13 14 15 16 17 18 19 20 21 22 23 24 25 26 27 28 29 30 31 32 33 34 35 36 37 38 39 40 41 42 43 44 45 46 47 48 49 50
000
NZUS93 KARX 011910
HRRWXR

CURRENT HOURLY OBSERVATIONS ACROSS
MUCH OF THE UPPER MISSISSIPPI VALLEY
NATIONAL WEATHER SERVICE LA CROSSE WI
100 PM CST SUN FEB 01 2015


...SOUTHEAST MINNESOTA...


CITY           SKY/WX    TMP DP  RH WIND       PRES   REMARKS
ROCHESTER      LGT SNOW  12   7  80 N23G29    30.08S WCI  -7
ROCHESTER/MAYO CLOUDY    12   6  75 N9G23     30.11S WCI   0
WINONA         CLOUDY    18  10  73 NE10G17   30.14F HAZE    WCI   6
AUSTIN         LGT SNOW  12   9  85 N15G26    30.06S WCI  -4
ALBERT LEA     LGT SNOW  12   9  85 N23       30.08F VSB 1   WCI  -7
DODGE CENTER   CLOUDY    12   9  85 N17       30.09S FOG     WCI  -5
PRESTON        CLOUDY    12   8  82 NE20G30   30.05S WCI  -6
OWATONNA       CLOUDY    12   3  67 N21G28    30.13S WCI  -6
FARIBAULT      CLOUDY    14   3  62 N16G24    30.17F WCI  -2
$$

...ELSEWHERE IN MINNESOTA...


CITY           SKY/WX    TMP DP  RH WIND       PRES   REMARKS
MINNEAPOLIS    CLOUDY    16   2  54 N17G28    30.23F WCI   0
INTNL FALLS    SUNNY     -3 -16  53 N7        30.41F WCI -16
DULUTH         SUNNY      7 -14  37 N10       30.28F WCI  -8
RED WING       CLOUDY    16   0  48 NE10G23   30.18F WCI   3
REDWOOD FALLS  CLOUDY    14   4  64 NE10G23   30.25F WCI   1
MANKATO        CLOUDY    14   3  62 N17G25    30.17F WCI  -3
WORTHINGTON    CLOUDY    19   3  49 N24G32    30.17S VSB 3/4 WCI   2
FAIRMONT       CLOUDY    14   9  79 N20G28    30.12F WCI  -3
$$

...SOUTHWEST WISCONSIN...


CITY           SKY/WX    TMP DP  RH WIND       PRES   REMARKS
LA CROSSE      LGT SNOW  16   9  74 N12       30.10F WCI   3
PRAIRIE DU CHI MIX PCPN  18  11  74 N12G23    30.00F WCI   6
BOSCOBEL       LGT SNOW  18  11  74 NE10G24   30.01F VSB 3/4 WCI   6
LONE ROCK      SNOW      16  10  77 NE17G24   30.01F VSB 1/2 WCI   0
PLATTEVILLE    CLOUDY    18  15  88 N29       29.88F VSB 1   WCI  -2
FORT MC COY    LGT SNOW  15   9  76 NE15      30.10F WCI   0
CAMP DOUGLAS   LGT SNOW  14  12  92 NE15G24   30.09F VSB 1   WCI  -1
VIROQUA        CLOUDY    14   9  80 NE21G31   30.00F WCI  -4
WIS DELLS      LGT SNOW  13   9  83 NE18G25   30.02F WCI  -4
$$

...ELSEWHERE IN WISCONSIN...


CITY           SKY/WX    TMP DP  RH WIND       PRES   REMARKS
MILWAUKEE      SNOW      22  18  85 NE24G36   29.92F VSB 1/2 WCI   5
MADISON        LGT SNOW  14   9  80 NE22G37   29.97F VSB 3/4 WCI  -4
GREEN BAY      MIX PCPN  10   3  73 NE29G38   30.15F WCI -12
EAU CLAIRE     CLOUDY    14   0  53 NE15G24   30.17F WCI  -1
BLACK RVR FLS  LGT SNOW  15   5  63 NE16G22   30.12F WCI   0
MEDFORD        CLOUDY    11   0  61 NE12      30.12F WCI  -3
WAUSAU         CLOUDY    12   1  61 NE16G23   30.12F WCI  -5
WIS RAPIDS     CLOUDY    13   0  56 NE15G22   30.12F WCI  -3
MARSHFIELD     CLOUDY    13   2  61 NE17G23   30.11F WCI  -4
RICE LAKE      CLOUDY    15   3  58 N17G23    30.22F WCI  -2
$$

...NORTHEAST IOWA...


CITY           SKY/WX    TMP DP  RH WIND       PRES   REMARKS
DECORAH        LGT SNOW  16  10  79 NE14G25   29.99S WCI   1
MASON CITY     LGT SNOW  14  10  84 N25       30.05R VSB 1   WCI  -5
CHARLES CITY   LGT SNOW  16  12  86 NE22      30.01R WCI  -2
OELWEIN        LGT SNOW  18  12  79 NE23G30   29.92R VSB 1   WCI   0
$$

...ELSEWHERE IN IOWA...


CITY           SKY/WX    TMP DP  RH WIND       PRES   REMARKS
DES MOINES     SNOW      21  16  81 NE22G30   29.91R VSB 1/2 WCI   5
IOWA CITY      HVY SNOW  22  19  89 NE23G32   29.83S VSB 1/4 WCI   6
FORT DODGE     CLOUDY    18  10  73 CALM      30.03S VSB 1/2
$$

...NORTHERN ILLINOIS...


CITY           SKY/WX    TMP DP  RH WIND       PRES   REMARKS
CHICAGO-OHARE  HVY SNOW  25  24  96 NE24G31   29.76F VSB 1/4 WCI   9
CHICAGO-MIDWAY LGT SNOW  30  27  88 NE23G30   29.73F VSB 3/4 WCI  17
MOLINE         LGT SNOW  25  21  85 NE15G30   29.77F VSB 3/4 WCI  13
ROCKFORD       LGT SNOW  24  20  84 NE26G38   29.85F VSB 3/4 WCI   8
PEORIA         LGT SNOW  35  32  88 NE7       29.67F FOG     WCI  29
$$

NOTE: "FAIR" INDICATES FEW OR NO CLOUDS BELOW 12,000 FEET WITH NO
SIGNIFICANT WEATHER AND/OR OBSTRUCTIONS TO VISIBILITY. WIND
SPEEDS ARE IN MILES-PER-HOUR.



USA.gov is the U.S. government's official web portal to all federal, state and local government web resources and services.